EW5206 Weather Reports


Display with metric or nautical units.
time (UTC)temp
F
wind
direction
speed
MPH
gust
MPH
rain 1hr
in
rain 24hr
in
rain mn
in
humidity
%
barometer
mb
20260904171537 98 0.0 0.0 0.00 0.00 0.00 41 1014.4
20260904170036 98 0.0 0.0 0.00 0.00 0.00 41 1014.5
20260904164535 98 0.0 0.0 0.00 0.00 0.00 42 1014.5
20260904163033 98 0.0 0.0 0.00 0.00 0.00 44 1014.5
20260904161533 97 0.0 0.0 0.00 0.00 0.00 46 1014.6
20260904160032 98 0.0 0.0 0.00 0.00 0.00 45 1014.8
20260904154532 98 0.0 0.0 0.00 0.00 0.00 45 1014.8
20260904153038 99 0.0 0.0 0.00 0.00 0.00 44 1015.0
20260904151527 98 0.0 0.0 0.00 0.00 0.00 47 1014.9
20260904150026 96 0.0 0.0 0.00 0.00 0.00 51 1014.9
20260904144518 95 0.0 0.0 0.00 0.00 0.00 56 1015.0
20260904143014 93 0.0 0.0 0.00 0.00 0.00 57 1014.9
20260904141511 90 0.0 0.0 0.00 0.00 0.00 61 1014.9
20260904140006 88 0.0 0.0 0.00 0.00 0.00 65 1015.0
20260904134504 87 0.0 0.0 0.00 0.00 0.00 64 1015.0
20260904133002 86 0.0 0.0 0.00 0.00 0.00 66 1015.1
20260904131600 83 0.0 0.0 0.00 0.00 0.00 71 1015.1
20260904124555 80 0.0 0.0 0.00 0.00 0.00 76 1015.2
20260904123044 77 0.0 0.0 0.00 0.00 0.00 83 1015.2
20260904121543 73 0.0 0.0 0.00 0.00 0.00 88 1015.1
20260904120056 72 0.0 0.0 0.00 0.00 0.00 90 1015.1
20260904114541 71 0.0 0.0 0.00 0.00 0.00 90 1015.0
20260904113041 71 0.0 0.0 0.00 0.00 0.00 90 1015.0
20260904111541 71 0.0 0.0 0.00 0.00 0.00 90 1015.0
20260904110042 71 0.0 0.0 0.00 0.00 0.00 90 1015.0
20260904104537 71 0.0 0.0 0.00 0.00 0.00 89 1014.8
20260904103037 72 0.0 0.0 0.00 0.00 0.00 88 1014.8
20260904101535 72 0.0 0.0 0.00 0.00 0.00 87 1014.7
20260904100035 72 0.0 0.0 0.00 0.00 0.00 86 1014.5
20260904094535 73 0.0 0.0 0.00 0.00 0.00 86 1014.4
20260904093037 73 0.0 0.0 0.00 0.00 0.00 86 1014.4
20260904091534 73 0.0 0.0 0.00 0.00 0.00 86 1014.3
20260904090034 72 0.0 0.0 0.00 0.00 0.00 88 1014.2
20260904084532 72 0.0 0.0 0.00 0.00 0.00 87 1014.1
20260904083035 73 0.0 0.0 0.00 0.00 0.00 86 1013.9
20260904081533 73 0.0 0.0 0.00 0.00 0.00 85 1013.7
20260904080029 73 0.0 0.0 0.00 0.00 0.00 85 1013.8
20260904074527 73 0.0 0.0 0.00 0.00 0.00 85 1013.6
20260904073027 73 0.0 0.0 0.00 0.00 0.00 85 1013.6
20260904071524 73 0.0 0.0 0.00 0.00 0.00 85 1013.8
20260904070023 74 0.0 0.0 0.00 0.00 0.00 85 1013.9
20260904064520 74 0.0 0.0 0.00 0.00 0.00 84 1014.1
20260904063018 74 0.0 0.0 0.00 0.00 0.00 83 1014.2
20260904061535 74 0.0 0.0 0.00 0.00 0.00 83 1014.5
20260904060013 74 0.0 0.0 0.00 0.00 0.00 82 1014.8
20260904054518 75 0.0 0.0 0.00 0.00 0.00 81 1015.2
20260904053007 75 0.0 0.0 0.00 0.00 0.00 79 1015.4
20260904051505 75 0.0 0.0 0.00 0.00 0.00 81 1015.6
20260904050004 75 0.0 0.0 0.00 0.00 0.00 80 1015.6
20260904044506 76 0.0 0.0 0.00 0.00 0.00 79 1015.7
20260904043002 76 0.0 0.0 0.00 0.00 0.00 78 1015.6
20260904041602 76 0.0 0.0 0.00 0.00 0.00 77 1015.7
20260904040057 77 0.0 0.0 0.00 0.00 0.00 77 1015.7
20260904034555 77 0.0 0.0 0.00 0.00 0.00 76 1015.6
20260904033055 77 0.0 0.0 0.00 0.00 0.00 75 1015.7
20260904031556 77 0.0 0.0 0.00 0.00 0.00 74 1015.7
20260904030106 78 0.0 0.0 0.00 0.00 0.00 74 1015.6
20260904024554 78 0.0 0.0 0.00 0.00 0.00 73 1015.6
20260904023054 78 0.0 0.0 0.00 0.00 0.00 72 1015.6
20260904021554 79 0.0 0.0 0.00 0.00 0.00 70 1015.5
20260904020052 79 0.0 0.0 0.00 0.00 0.00 70 1015.4
20260904014605 80 0.0 0.0 0.00 0.00 0.00 69 1015.3
20260904013051 80 0.0 0.0 0.00 0.00 0.00 67 1015.5
20260904011552 81 0.0 0.0 0.00 0.00 0.00 66 1015.4
20260904010051 81 0.0 0.0 0.00 0.00 0.00 65 1015.5
20260904004550 81 0.0 0.0 0.00 0.00 0.00 64 1015.5
20260904003050 82 0.0 0.0 0.00 0.00 0.00 63 1015.2
20260904001550 82 0.0 0.0 0.00 0.00 0.00 61 1014.8
20260904000050 83 0.0 0.0 0.00 0.00 0.00 59 1014.7
20260903234548 84 0.0 0.0 0.00 0.00 0.00 57 1014.4
20260903233050 85 0.0 0.0 0.00 0.00 0.00 55 1014.1
20260903231547 86 0.0 0.0 0.00 0.00 0.00 53 1014.2
20260903230050 87 0.0 0.0 0.00 0.00 0.00 51 1013.9
20260903224546 88 0.0 0.0 0.00 0.00 0.00 51 1013.7
20260903223045 89 0.0 0.0 0.00 0.00 0.00 51 1013.9
20260903221544 89 0.0 0.0 0.00 0.00 0.00 50 1013.8
20260903220047 90 0.0 0.0 0.00 0.00 0.00 50 1014.0
20260903214544 90 0.0 0.0 0.00 0.00 0.00 50 1014.1
20260903213041 90 0.0 0.0 0.00 0.00 0.00 52 1014.1
20260903211540 90 0.0 0.0 0.00 0.00 0.00 52 1014.2
20260903210043 90 0.0 0.0 0.00 0.00 0.00 51 1014.4
20260903204535 90 0.0 0.0 0.00 0.00 0.00 49 1014.5
20260903203033 90 0.0 0.0 0.00 0.00 0.00 50 1014.5
20260903201533 90 0.0 0.0 0.00 0.00 0.00 49 1014.9
20260903200030 90 0.0 0.0 0.00 0.00 0.00 48 1015.0
20260903194528 90 0.0 0.0 0.00 0.00 0.00 51 1015.1
20260903193027 91 0.0 0.0 0.00 0.00 0.00 48 1015.2
20260903191536 91 0.0 0.0 0.00 0.00 0.00 49 1015.3
20260903190025 90 0.0 0.0 0.00 0.00 0.00 49 1015.4
20260903184531 91 0.0 0.0 0.00 0.00 0.00 48 1015.7
20260903183022 92 0.0 0.0 0.00 0.00 0.00 46 1015.9
20260903181522 93 0.0 0.0 0.00 0.00 0.00 48 1015.7
20260903180020 95 0.0 0.0 0.00 0.00 0.00 43 1016.0
20260903174517 96 0.0 0.0 0.00 0.00 0.00 44 1016.1
20260903173020 96 0.0 0.0 0.00 0.00 0.00 45 1016.2